Content
SEND FEEDBACK

Daily
Averages
Monthly
Summary
United States of America

PAAKEA, HAWAII


Home > North America > United States > Hawaii
Elevation: 1200 feet     Latitude: 20 49N     Longitude: 156 07W

WEATHER
 
SELECT A DAY
Number of Records: 217,181;   Date Range: 1/1/95 - 7/29/14
 
SHARE

PRINT THIS DATA

[ ← Previous Day ]
WEATHER ALMANAC - FEBRUARY 1, 2013
[ Next Day → ]
[ °C ]   °F
Weather ElementAverageHighLow
Temperature73.2 °F79 °F (2:54 pm)70 °F (3:54 am)
Dewpoint60.8 °F64 °F (1:54 am)57.9 °F (7:54 am)
Humidity65.7 %78 % (1:54 am)52 % (12:54 pm)
Barometer30.11 in30.15 in (8:54 am)30.06 in (3:54 pm)
Wind Speed18.5 mph26.5 mph (2:54 pm)
Wind Gust34.5 mph (2:54 pm)
Weather ElementAverage
Visibility10 mi
Wind DirectionNE (49.6 °)

Weather ElementTotal
Precipitation---
Cooling Degree Days9.5 (Base 65)
Growing Degree Days24.5 (Base 50)
Averaged from 23 records on February 1, 2013
WEATHER CONDITIONS BREAKOUT
WIND DIRECTION BREAKOUT
WEATHER BY HOUR - FEBRUARY 1, 2013
[ °C ]   °F
Local TimeTemperatureDewpointHumidityBarometerVisibilityWind DirectionWind SpeedGust SpeedPrecipitationEventsConditions
1:54 AM71.1 °F64.0 °F78 %30.09 in10.0 miNE (50°)18.4 mph26.5 mph0.00 inRainLight Rain
2:54 AM71.1 °F63.0 °F75 %30.08 in10.0 miNE (50°)19.6 mph0.00 inRainLight Rain
3:54 AM70.0 °F62.1 °F76 %30.08 in10.0 miNE (50°)17.3 mph0.00 inRainLight Rain
4:54 AM70.0 °F62.1 °F76 %30.08 in10.0 miNE (50°)13.8 mph0.00 inClear
5:54 AM70.0 °F61.0 °F73 %30.10 in10.0 miNE (50°)11.5 mph0.00 inPartly Cloudy
6:54 AM70.0 °F60.1 °F71 %30.12 in10.0 miNE (50°)16.1 mph26.5 mphPartly Cloudy
7:54 AM71.1 °F57.9 °F63 %30.14 in10.0 miNE (50°)15.0 mph25.3 mphPartly Cloudy
8:54 AM73.0 °F60.1 °F64 %30.15 in10.0 miNE (50°)12.7 mphPartly Cloudy
9:54 AM75.0 °F59.0 °F57 %30.15 in10.0 miNE (50°)19.6 mph26.5 mphPartly Cloudy
10:54 AM75.9 °F59.0 °F56 %30.15 in10.0 miNE (40°)23.0 mphPartly Cloudy
11:54 AM77.0 °F59.0 °F54 %30.13 in10.0 miNE (40°)24.2 mph31.1 mphPartly Cloudy
12:54 PM78.1 °F59.0 °F52 %30.10 in10.0 miNE (50°)23.0 mph29.9 mphPartly Cloudy
1:54 PM78.1 °F60.1 °F54 %30.07 in10.0 miNE (40°)24.2 mph32.2 mphPartly Cloudy
2:54 PM79.0 °F62.1 °F56 %30.07 in10.0 miNE (40°)26.5 mph34.5 mphPartly Cloudy
3:54 PM78.1 °F62.1 °F58 %30.06 in10.0 miNE (50°)21.9 mph31.1 mphPartly Cloudy
4:54 PM75.9 °F59.0 °F56 %30.07 in10.0 miNE (50°)16.1 mph27.6 mphPartly Cloudy
5:54 PM73.0 °F63.0 °F71 %30.09 in10.0 miNE (50°)19.6 mph33.4 mphClear
6:54 PM72.0 °F62.1 °F71 %30.11 in10.0 miNE (50°)16.1 mph24.2 mphPartly Cloudy
7:54 PM71.1 °F62.1 °F73 %30.13 in10.0 miNE (50°)13.8 mph21.9 mphClear
8:54 PM71.1 °F61.0 °F70 %30.14 in10.0 miENE (60°)16.1 mphPartly Cloudy
9:54 PM71.1 °F61.0 °F70 %30.13 in10.0 miENE (60°)17.3 mph28.8 mphClear
10:54 PM71.1 °F60.1 °F68 %30.12 in10.0 miENE (60°)19.6 mph26.5 mphClear
11:54 PM71.1 °F60.1 °F68 %30.10 in10.0 miNE (50°)19.6 mph26.5 mphClear
Hourly data recorded from PHOG, located miles away from Paakea, Hawaii







STORIES FROM OUR PARTNERS